Regional Weather Roundup
Issued by NWS Sterling, VA

Home | Current Version | Previous Version | Text Only | Print | Product List | Glossary Off
Versions: 1 2 3 4 5 6 7 8 9 10 11 12 13 14 15 16 17 18 19 20 21 22 23 24 25 26 27 28

000
ASUS41 KLWX 050510
RWRLWX

REGIONAL WEATHER ROUNDUP
NATIONAL WEATHER SERVICE BALTIMORE MD/WASHINGTON DC
1200 AM EST MON DEC 05 2016

Note: "FAIR" indicates few or no clouds below 12,000 feet
with no significant weather and/or obstructions to visibility.
 TC=TEMPERATURE CELSIUS

 * =Non NWS site. Station does not report precipitation (e.g. rain,
    snow, etc.), thunder, or fog.

DCZ001-MDZ009-015-VAZ040>042-051-053>054-050600-
WASHINGTON METRO

CITY           SKY/WX    TMP DP  RH WIND       PRES   REMARKS
WASHINGTON NAT LGT RAIN  41  39  93 S10       30.08F FOG
DULLES         LGT RAIN  38  36  92 S8        30.06F FOG
ANDREWS AFB    LGT RAIN  39  36  91 S9        30.06F
FT BELVOIR     LGT RAIN  39  37  92 SE7       30.07F
QUANTICO       LGT RAIN  41  37  86 S18       30.09F
COLLEGE PARK*  CLOUDY    37  36  93 S7        30.07F
LEESBURG*      RAIN      39  39 100 MISG      30.05F
MANASSAS*      CLOUDY    37  37 100 S9        30.07F
GAITHERSBURG*  CLOUDY    37  32  81 SE8       30.08F

$$

MDZ006>007-011-014-050600-
BALTIMORE METRO

CITY           SKY/WX    TMP DP  RH WIND       PRES   REMARKS
BWI AIRPORT    LGT RAIN  39  38  96 SE5       30.09F
MD SCIENCE CTR   N/A     41  34  76 MISG      30.08F
ANNAPOLIS      LGT RAIN  42  36  79 S9G18     30.10F
FORT MEADE*    CLOUDY    37  36  93 SE3       30.10F

$$

MDZ012-015-019>023-050600-
MARYLAND EASTERN SHORE

CITY           SKY/WX    TMP DP  RH WIND       PRES   REMARKS
OCEAN CITY     LGT RAIN  40  37  89 CALM      30.14F
SALISBURY      LGT RAIN  40  38  93 S3        30.13F
BAY BRIDGE AP* LGT RAIN  41  39  93 S8        30.11F FOG
CAMBRIDGE*     CLOUDY    39  37  93 SE3       30.13R
EASTON*        LGT RAIN  41  37  86 S6        30.16R

$$

MDZ017>025-050600-
SOUTHERN MARYLAND

CITY           SKY/WX    TMP DP  RH WIND       PRES   REMARKS
PATUXENT RIVER LGT RAIN  41  36  82 S3        30.12F
ST INIGOES     LGT RAIN  43  36  76 S5        30.12F
LEONARDTOWN*   CLOUDY    39  36  87 CALM      30.12F

$$

MDZ003>005-050600-
NORTH CENTRAL MARYLAND

CITY           SKY/WX    TMP DP  RH WIND       PRES   REMARKS
FREDERICK*     LGT RAIN  37  37 100 S7        30.07F
HAGERSTOWN APT LGT RAIN  38  33  82 S15       29.98F
WESTMINSTER*   FLURRIES  36  34  93 SE8       30.02F

$$

MDZ501>502-050600-
WESTERN MARYLAND

CITY           SKY/WX    TMP DP  RH WIND       PRES   REMARKS
OAKLAND*       FOG       32  32 100 SE6       29.84S VSB 1/2
CUMBERLAND*    NOT AVBL

$$

VAZ025>031-050600-
SHENANDOAH VALLEY

CITY           SKY/WX    TMP DP  RH WIND       PRES   REMARKS
WINCHESTER*    DRIZZLE   36  34  93 S8        29.99F
FRONT ROYAL*   CLOUDY    36  36 100 SW5       29.99F
LURAY*         LGT RAIN  37  37 100 SW12      29.99F
NEW MARKET*    CLOUDY    37  35  90 SW9       29.99F
STAUNTON*      DRIZZLE   35  34  97 S8        30.02F WCI  29
WAYNESBORO*    CLOUDY    35  34  96 CALM      30.00F

$$

WVZ021-048>050-054>055-050600-
EASTERN WEST VIRGINIA PANHANDLE

CITY           SKY/WX    TMP DP  RH WIND       PRES   REMARKS
MARTINSBURG    CLOUDY    37  35  92 S6        29.99F
PETERSBURG*    LGT RAIN  41  36  82 SE6       29.94F

$$

VAZ036>039-050-050600-
CENTRAL FOOTHILLS

CITY           SKY/WX    TMP DP  RH WIND       PRES   REMARKS
CHARLOTTESVILL LGT RAIN  39  36  89 S6        30.05F FOG
CULPEPER*      DRIZZLE   38  38  99 CALM      30.07F
ORANGE*        LGT RAIN  37  37 100 SE7       30.07F
GORDONSVILLE*  CLOUDY    37  37  99 S3        30.05F FOG
WARRENTON*     DRIZZLE   38  35  85 S6        30.05F

$$

VAZ055>057-050600-
NORTH AND CENTRAL PIEDMONT

CITY           SKY/WX    TMP DP  RH WIND       PRES   REMARKS
FREDERICKSBRG* LGT RAIN  39  39 100 SE6       30.07F
STAFFORD*      DRIZZLE   37  37 100 S5        30.11F

$$

NCZ024-NYZ072-PAZ021-071-VAZ022-071-050600-
OTHER REGIONAL OBSERVATIONS

CITY           SKY/WX    TMP DP  RH WIND       PRES   REMARKS
NEW YORK CITY  CLOUDY    40  24  53 E8        30.14F
PHILADELPHIA   CLOUDY    44  31  60 S9        30.12F
PITTSBURGH     LGT RAIN  38  36  92 S3        29.83F
ROANOKE        LGT RAIN  37  36  96 S5        30.07F FOG
RICHMOND       LGT RAIN  39  38  96 SE5       30.09F FOG
RALEIGH        LGT RAIN  42  41  96 SE3       30.08F FOG

$$

ANZ530>537-050600-
MARINE OBSERVATIONS

STATION/POSITION TIME  TEMP    WIND        PRES
                       AIR SEA DIR/SP/G
                 (UTC) (F)     (DEG/KT/KT) (MB)
THOMAS PT LIGHT  0500   42 49  180/ 16/ 18   N/A
BALT KEY BRIDGE  0448   42     170/ 11/ 13 1019.1F
COVE POINT       0448   41     210/  7/  9 1020.6F
LEWISETTA        0448   42 48  170/  5/  6 1019.4F
SOLOMONS ISLAND  0448   42 51  180/  5/  6   N/A
PINEY POINT      0448          180/  9/  9   N/A

$$





USA.gov is the U.S. government's official web portal to all federal, state and local government web resources and services.